N1615A PTKK-PTPN

Flight info

Callsign N1615A
Flight time 0h 59m
Altitude 39000
Route MICNO R584 BIRUQ
Aircraft CL60/M-SBDE1E2E3FGHIJ4J5J7M3RWXYZ/LB1V1D1

Departure

Time 2026-04-23 23:37
Airport Chuuk International Airport (PTKK)

Arrival

Time 2026-04-24 00:36
Airport Pohnpei International Airport (PTPN)
Time Latitude Longitude Altitude Speed Heading
2026-04-23 23:22 7.45773 151.84093 19 ft 0 kts 230°
2026-04-23 23:34 7.45776 151.84079 18 ft 8 kts 325°
2026-04-23 23:35 7.45846 151.84073 20 ft 11 kts 341°
2026-04-23 23:35 7.45920 151.83998 20 ft 8 kts 284°
2026-04-23 23:35 7.45862 151.83942 20 ft 18 kts 224°
2026-04-23 23:35 7.45762 151.83839 20 ft 22 kts 227°
2026-04-23 23:36 7.45664 151.83730 20 ft 7 kts 242°
2026-04-23 23:36 7.45629 151.83696 21 ft 8 kts 149°
2026-04-23 23:36 7.45629 151.83716 21 ft 0 kts 43°
2026-04-23 23:36 7.45644 151.83731 21 ft 18 kts 45°
2026-04-23 23:37 7.45976 151.84068 19 ft 116 kts 46°
2026-04-23 23:37 7.46723 151.84851 31 ft 185 kts 44°
2026-04-23 23:37 7.47587 151.85799 1033 ft 177 kts 50°
2026-04-23 23:37 7.48364 151.86615 2116 ft 166 kts 46°
2026-04-23 23:38 7.49227 151.87418 2622 ft 186 kts 45°
2026-04-23 23:38 7.50013 151.88438 3327 ft 193 kts 73°
2026-04-23 23:38 7.50012 151.89851 3820 ft 220 kts 108°
2026-04-23 23:38 7.49184 151.91278 4238 ft 246 kts 123°
2026-04-23 23:39 7.48148 151.92679 4876 ft 255 kts 124°
2026-04-23 23:39 7.47065 151.94118 5549 ft 260 kts 124°
2026-04-23 23:39 7.45983 151.95554 6141 ft 264 kts 124°
2026-04-23 23:39 7.44997 151.97069 6699 ft 263 kts 110°
2026-04-23 23:40 7.44641 151.98888 7223 ft 266 kts 92°
2026-04-23 23:40 7.44531 152.00749 7786 ft 269 kts 92°
2026-04-23 23:40 7.44411 152.02608 8273 ft 273 kts 93°
2026-04-23 23:40 7.44286 152.04552 8784 ft 276 kts 93°
2026-04-23 23:41 7.44168 152.06409 9305 ft 277 kts 93°
2026-04-23 23:41 7.44045 152.08368 9797 ft 280 kts 93°
2026-04-23 23:41 7.43919 152.10349 10167 ft 287 kts 93°
2026-04-23 23:41 7.43790 152.12404 10163 ft 305 kts 93°
2026-04-23 23:42 7.43652 152.14577 10162 ft 318 kts 93°
2026-04-23 23:42 7.43506 152.16869 10162 ft 327 kts 93°
2026-04-23 23:42 7.43359 152.19162 10191 ft 332 kts 94°
2026-04-23 23:42 7.43085 152.21472 10503 ft 328 kts 100°
2026-04-23 23:43 7.42702 152.23730 10626 ft 330 kts 94°
2026-04-23 23:43 7.42591 152.26033 10662 ft 334 kts 91°
2026-04-23 23:43 7.42514 152.28404 10785 ft 335 kts 91°
2026-04-23 23:43 7.42418 152.30786 10900 ft 335 kts 92°
2026-04-23 23:44 7.42305 152.33128 11249 ft 339 kts 92°
2026-04-23 23:44 7.42176 152.35536 12134 ft 343 kts 92°
2026-04-23 23:44 7.42036 152.37878 13109 ft 343 kts 93°
2026-04-23 23:44 7.41888 152.40306 14005 ft 345 kts 93°
2026-04-23 23:45 7.41736 152.42749 14863 ft 348 kts 93°
2026-04-23 23:45 7.41582 152.45175 15648 ft 352 kts 93°
2026-04-23 23:45 7.41421 152.47682 16409 ft 356 kts 93°
2026-04-23 23:45 7.41261 152.50159 17109 ft 361 kts 93°
2026-04-23 23:46 7.41093 152.52707 17793 ft 365 kts 93°
2026-04-23 23:46 7.40922 152.55289 18483 ft 369 kts 93°
2026-04-23 23:46 7.40754 152.57797 19119 ft 373 kts 93°
2026-04-23 23:46 7.40579 152.60410 19776 ft 376 kts 93°
2026-04-23 23:47 7.40399 152.63072 20403 ft 380 kts 94°
2026-04-23 23:47 7.40233 152.65509 20935 ft 384 kts 94°
2026-04-23 23:47 7.40044 152.68260 21525 ft 388 kts 94°
2026-04-23 23:47 7.39856 152.71010 22042 ft 393 kts 94°
2026-04-23 23:48 7.39666 152.73764 22571 ft 398 kts 94°
2026-04-23 23:48 7.39470 152.76599 23117 ft 402 kts 94°
2026-04-23 23:48 7.39276 152.79402 23666 ft 405 kts 94°
2026-04-23 23:48 7.39081 152.82214 24205 ft 409 kts 94°
2026-04-23 23:49 7.38682 152.87936 25201 ft 416 kts 94°
2026-04-23 23:49 7.38479 152.90851 25710 ft 419 kts 94°
2026-04-23 23:49 7.38272 152.93817 26167 ft 423 kts 94°
2026-04-23 23:50 7.38068 152.96710 26597 ft 426 kts 94°
2026-04-23 23:50 7.37857 152.99728 27077 ft 429 kts 94°
2026-04-23 23:50 7.37645 153.02730 27495 ft 432 kts 94°
2026-04-23 23:50 7.37432 153.05751 27910 ft 435 kts 94°
2026-04-23 23:51 7.37216 153.08826 28281 ft 439 kts 94°
2026-04-23 23:51 7.36995 153.11946 28458 ft 448 kts 94°
2026-04-23 23:51 7.36543 153.18329 28708 ft 464 kts 94°
2026-04-23 23:52 7.36315 153.21547 29014 ft 467 kts 94°
2026-04-23 23:52 7.36080 153.24858 29373 ft 468 kts 94°
2026-04-23 23:52 7.35846 153.28142 29786 ft 468 kts 94°
2026-04-23 23:52 7.35617 153.31358 30264 ft 466 kts 94°
2026-04-23 23:53 7.35384 153.34627 30773 ft 463 kts 94°
2026-04-23 23:53 7.35157 153.37823 31273 ft 459 kts 94°
2026-04-23 23:53 7.34930 153.40999 31756 ft 457 kts 94°
2026-04-23 23:53 7.34702 153.44203 32192 ft 455 kts 95°
2026-04-23 23:54 7.34478 153.47342 32525 ft 455 kts 94°
2026-04-23 23:54 7.34253 153.50496 32858 ft 456 kts 95°
2026-04-23 23:54 7.34021 153.53743 33269 ft 455 kts 95°
2026-04-23 23:54 7.33801 153.56816 33697 ft 453 kts 95°
2026-04-23 23:55 7.33572 153.60005 34097 ft 452 kts 95°
2026-04-23 23:55 7.33343 153.63199 34500 ft 450 kts 95°
2026-04-23 23:55 7.33120 153.66303 34903 ft 448 kts 95°
2026-04-23 23:55 7.32891 153.69487 35291 ft 447 kts 95°
2026-04-23 23:56 7.32665 153.72624 35636 ft 446 kts 95°
2026-04-23 23:56 7.32446 153.75674 35956 ft 445 kts 95°
2026-04-23 23:56 7.32218 153.78832 36234 ft 445 kts 95°
2026-04-23 23:56 7.31993 153.81944 36479 ft 445 kts 95°
2026-04-23 23:57 7.31766 153.85084 36746 ft 445 kts 95°
2026-04-23 23:57 7.31540 153.88202 36968 ft 446 kts 96°
2026-04-23 23:57 7.31314 153.91321 37191 ft 446 kts 95°
2026-04-23 23:57 7.31095 153.94350 37404 ft 446 kts 95°
2026-04-23 23:58 7.30868 153.97475 37659 ft 445 kts 95°
2026-04-23 23:58 7.30657 154.00366 37860 ft 445 kts 96°
2026-04-23 23:58 7.30426 154.03540 38090 ft 444 kts 96°
2026-04-23 23:58 7.30202 154.06627 38260 ft 445 kts 95°
2026-04-23 23:59 7.29982 154.09636 38422 ft 445 kts 95°
2026-04-23 23:59 7.29758 154.12707 38599 ft 445 kts 96°
2026-04-23 23:59 7.29528 154.15865 38806 ft 445 kts 95°
2026-04-23 23:59 7.29307 154.18878 38922 ft 446 kts 96°
2026-04-24 00:00 7.28851 154.25107 38907 ft 452 kts 95°
2026-04-24 00:00 7.28393 154.31346 38909 ft 457 kts 96°
2026-04-24 00:01 7.27935 154.37581 38908 ft 459 kts 96°
2026-04-24 00:01 7.27462 154.43990 38906 ft 460 kts 95°
2026-04-24 00:02 7.26999 154.50259 38909 ft 460 kts 95°
2026-04-24 00:02 7.26527 154.56645 38912 ft 459 kts 95°
2026-04-24 00:03 7.26055 154.63020 38919 ft 460 kts 96°
2026-04-24 00:03 7.25586 154.69344 38920 ft 462 kts 96°
2026-04-24 00:04 7.25115 154.75678 38917 ft 462 kts 96°
2026-04-24 00:04 7.24634 154.82130 38916 ft 463 kts 96°
2026-04-24 00:05 7.24158 154.88515 38909 ft 463 kts 96°
2026-04-24 00:05 7.23669 154.95035 38917 ft 464 kts 96°
2026-04-24 00:06 7.23176 155.01485 38917 ft 464 kts 96°
2026-04-24 00:06 7.22683 155.07958 38896 ft 464 kts 96°
2026-04-24 00:07 7.22198 155.14331 38886 ft 464 kts 96°
2026-04-24 00:07 7.21711 155.20746 38887 ft 463 kts 95°
2026-04-24 00:08 7.21218 155.27243 38891 ft 462 kts 95°
2026-04-24 00:08 7.20728 155.33697 38896 ft 461 kts 95°
2026-04-24 00:09 7.20238 155.40157 38901 ft 461 kts 95°
2026-04-24 00:09 7.19746 155.46631 38896 ft 461 kts 95°
2026-04-24 00:10 7.19252 155.53128 38901 ft 461 kts 95°
2026-04-24 00:10 7.18764 155.59540 38897 ft 461 kts 95°
2026-04-24 00:11 7.18287 155.65791 38906 ft 460 kts 95°
2026-04-24 00:11 7.17793 155.72264 38906 ft 459 kts 95°
2026-04-24 00:12 7.17301 155.78690 38888 ft 450 kts 95°
2026-04-24 00:12 7.17066 155.81767 38485 ft 443 kts 95°
2026-04-24 00:12 7.16845 155.84712 37800 ft 443 kts 95°
2026-04-24 00:13 7.16615 155.87805 36918 ft 445 kts 94°
2026-04-24 00:13 7.16393 155.90787 36199 ft 444 kts 94°
2026-04-24 00:13 7.16162 155.93864 35837 ft 439 kts 94°
2026-04-24 00:13 7.15931 155.96941 35457 ft 444 kts 94°
2026-04-24 00:14 7.15696 156.00047 35088 ft 449 kts 94°
2026-04-24 00:14 7.15457 156.03206 34711 ft 453 kts 94°
2026-04-24 00:14 7.15219 156.06343 34340 ft 454 kts 94°
2026-04-24 00:14 7.14985 156.09425 33977 ft 455 kts 94°
2026-04-24 00:15 7.14739 156.12637 33600 ft 456 kts 94°
2026-04-24 00:15 7.14495 156.15834 33232 ft 457 kts 94°
2026-04-24 00:15 7.14248 156.19063 32856 ft 459 kts 94°
2026-04-24 00:15 7.14000 156.22282 32498 ft 460 kts 94°
2026-04-24 00:16 7.13756 156.25461 32130 ft 461 kts 94°
2026-04-24 00:16 7.13504 156.28732 31753 ft 462 kts 94°
2026-04-24 00:16 7.13253 156.31975 31380 ft 462 kts 94°
2026-04-24 00:16 7.13005 156.35194 31009 ft 462 kts 94°
2026-04-24 00:17 7.12755 156.38428 30634 ft 463 kts 94°
2026-04-24 00:17 7.12507 156.41635 30263 ft 463 kts 94°
2026-04-24 00:17 7.12256 156.44871 29889 ft 463 kts 94°
2026-04-24 00:17 7.12001 156.48152 29512 ft 463 kts 94°
2026-04-24 00:18 7.11752 156.51373 29141 ft 463 kts 94°
2026-04-24 00:18 7.11499 156.54616 28769 ft 463 kts 94°
2026-04-24 00:18 7.11247 156.57855 28400 ft 460 kts 94°
2026-04-24 00:18 7.10999 156.61038 28116 ft 456 kts 94°
2026-04-24 00:19 7.10748 156.64264 27867 ft 454 kts 94°
2026-04-24 00:19 7.10507 156.67351 27628 ft 453 kts 94°
2026-04-24 00:19 7.10259 156.70529 27378 ft 451 kts 94°
2026-04-24 00:19 7.10006 156.73743 27128 ft 450 kts 94°
2026-04-24 00:20 7.09764 156.76839 26884 ft 448 kts 94°
2026-04-24 00:20 7.09514 156.80017 26563 ft 448 kts 94°
2026-04-24 00:20 7.09266 156.83159 25987 ft 447 kts 94°
2026-04-24 00:20 7.09025 156.86226 25424 ft 441 kts 94°
2026-04-24 00:21 7.08787 156.89255 24848 ft 435 kts 94°
2026-04-24 00:21 7.08550 156.92270 24277 ft 430 kts 94°
2026-04-24 00:21 7.08316 156.95235 23706 ft 426 kts 94°
2026-04-24 00:21 7.08081 156.98216 23138 ft 421 kts 94°
2026-04-24 00:22 7.07852 157.01121 22577 ft 417 kts 94°
2026-04-24 00:22 7.07624 157.04015 22029 ft 414 kts 94°
2026-04-24 00:22 7.07396 157.06898 21473 ft 411 kts 94°
2026-04-24 00:22 7.07168 157.09786 20925 ft 408 kts 94°
2026-04-24 00:23 7.06944 157.12605 20387 ft 404 kts 94°
2026-04-24 00:23 7.06722 157.15410 19854 ft 401 kts 94°
2026-04-24 00:23 7.06498 157.18231 19315 ft 398 kts 94°
2026-04-24 00:23 7.06278 157.21007 18789 ft 395 kts 94°
2026-04-24 00:24 7.06060 157.23759 18265 ft 392 kts 94°
2026-04-24 00:24 7.05843 157.26488 17747 ft 389 kts 94°
2026-04-24 00:24 7.05627 157.29205 17230 ft 386 kts 94°
2026-04-24 00:24 7.05414 157.31882 16748 ft 382 kts 94°
2026-04-24 00:25 7.05201 157.34557 16286 ft 381 kts 94°
2026-04-24 00:25 7.04989 157.37219 15760 ft 376 kts 94°
2026-04-24 00:25 7.04781 157.39819 15268 ft 372 kts 94°
2026-04-24 00:25 7.04575 157.42410 14774 ft 368 kts 94°
2026-04-24 00:26 7.04368 157.44989 14283 ft 365 kts 94°
2026-04-24 00:26 7.04168 157.47487 13811 ft 359 kts 94°
2026-04-24 00:26 7.03972 157.49934 13344 ft 351 kts 94°
2026-04-24 00:26 7.03777 157.52374 12877 ft 342 kts 94°
2026-04-24 00:27 7.03585 157.54759 12426 ft 334 kts 94°
2026-04-24 00:27 7.03400 157.57059 11990 ft 327 kts 94°
2026-04-24 00:27 7.03217 157.59335 11555 ft 320 kts 94°
2026-04-24 00:27 7.03041 157.61530 11142 ft 314 kts 94°
2026-04-24 00:28 7.02864 157.63724 10722 ft 308 kts 94°
2026-04-24 00:28 7.02691 157.65866 10318 ft 302 kts 94°
2026-04-24 00:28 7.02523 157.67953 9919 ft 298 kts 94°
2026-04-24 00:28 7.02352 157.70055 9517 ft 293 kts 94°
2026-04-24 00:29 7.02157 157.72067 9133 ft 289 kts 95°
2026-04-24 00:29 7.01990 157.73708 8825 ft 285 kts 95°
2026-04-24 00:29 7.01786 157.75723 8432 ft 281 kts 95°
2026-04-24 00:29 7.01588 157.77670 8067 ft 277 kts 95°
2026-04-24 00:30 7.01395 157.79575 7702 ft 273 kts 95°
2026-04-24 00:30 7.01203 157.81468 7343 ft 268 kts 95°
2026-04-24 00:30 7.01016 157.83310 6998 ft 264 kts 95°
2026-04-24 00:30 7.00828 157.85169 6648 ft 262 kts 95°
2026-04-24 00:31 7.00642 157.87007 6305 ft 262 kts 94°
2026-04-24 00:31 7.00459 157.88817 5964 ft 260 kts 94°
2026-04-24 00:31 7.00275 157.90624 5622 ft 259 kts 95°
2026-04-24 00:31 7.00089 157.92450 5273 ft 257 kts 95°
2026-04-24 00:32 6.99909 157.94234 4932 ft 256 kts 94°
2026-04-24 00:32 6.99725 157.96046 4592 ft 255 kts 95°
2026-04-24 00:32 6.99557 157.97705 4275 ft 255 kts 94°
2026-04-24 00:32 6.99373 157.99510 3932 ft 254 kts 95°
2026-04-24 00:33 6.99200 158.01222 3611 ft 253 kts 94°
2026-04-24 00:33 6.99022 158.02982 3274 ft 252 kts 94°
2026-04-24 00:33 6.98842 158.04759 2930 ft 251 kts 94°
2026-04-24 00:33 6.98666 158.06500 2598 ft 249 kts 94°
2026-04-24 00:34 6.98575 158.08228 2272 ft 248 kts 90°
2026-04-24 00:34 6.98563 158.09985 1941 ft 244 kts 89°
2026-04-24 00:34 6.98558 158.11670 1602 ft 233 kts 89°
2026-04-24 00:34 6.98550 158.13249 1325 ft 221 kts 90°
2026-04-24 00:35 6.98543 158.14752 1016 ft 201 kts 90°
2026-04-24 00:35 6.98537 158.16069 807 ft 176 kts 90°
2026-04-24 00:35 6.98531 158.17233 567 ft 157 kts 91°
2026-04-24 00:35 6.98526 158.18272 375 ft 136 kts 90°
2026-04-24 00:36 6.98522 158.19192 211 ft 133 kts 91°
2026-04-24 00:36 6.98516 158.20123 52 ft 130 kts 91°
2026-04-24 00:36 6.98510 158.20953 28 ft 100 kts 91°
2026-04-24 00:36 6.98504 158.21437 30 ft 23 kts 93°
2026-04-24 00:37 6.98510 158.21483 30 ft 1 kts 310°
2026-04-24 00:37 6.98510 158.21481 30 ft 0 kts 306°
2026-04-24 00:37 6.98506 158.21487 30 ft 0 kts 309°
2026-04-24 00:38 6.98508 158.21463 30 ft 7 kts 263°
2026-04-24 00:38 6.98504 158.21400 30 ft 11 kts 266°
2026-04-24 00:38 6.98503 158.21239 29 ft 38 kts 270°
2026-04-24 00:38 6.98501 158.20950 27 ft 42 kts 270°
2026-04-24 00:39 6.98500 158.20650 26 ft 43 kts 269°
2026-04-24 00:39 6.98495 158.20383 26 ft 25 kts 245°
2026-04-24 00:39 6.98392 158.20361 26 ft 13 kts 173°
2026-04-24 00:39 6.98294 158.20366 26 ft 12 kts 173°
2026-04-24 00:40 6.98227 158.20392 26 ft 8 kts 180°
2026-04-24 00:40 6.98194 158.20393 28 ft 0 kts 177°